Time,TemperatureF,DewpointF,PressureIn,WindDirection,WindDirectionDegrees,WindSpeedMPH,WindSpeedGustMPH,Humidity,HourlyPrecipIn,Conditions,Clouds,dailyrainin,SoftwareType,DateUTC
2018-05-27 01:36:00,70.0,54.0,29.57,South,189,0.0,0.0,56,-99.99,,,-99.99,,2018-05-27 06:36:00,
2018-05-27 02:06:00,70.0,54.0,29.57,SSE,160,0.0,0.0,56,-99.99,,,-99.99,,2018-05-27 07:06:00,
2018-05-27 02:36:00,69.0,54.0,29.57,SE,140,0.0,0.0,59,-99.99,,,-99.99,,2018-05-27 07:36:00,
2018-05-27 03:06:00,69.0,55.0,29.57,South,182,0.0,0.0,62,-99.99,,,-99.99,,2018-05-27 08:06:00,
2018-05-27 03:36:00,69.0,57.0,29.57,SE,145,0.0,0.0,66,-99.99,,,-99.99,,2018-05-27 08:36:00,
2018-05-27 04:06:00,69.0,58.0,29.57,SSE,167,0.0,0.0,69,-99.99,,,-99.99,,2018-05-27 09:06:00,
2018-05-27 04:36:00,68.0,59.0,29.57,SE,129,0.0,0.0,72,-99.99,,,-99.99,,2018-05-27 09:36:00,
2018-05-27 05:06:00,68.0,60.0,29.59,South,189,0.0,0.0,75,-99.99,,,-99.99,,2018-05-27 10:06:00,
2018-05-27 05:35:00,66.0,59.0,29.59,North,-9999,-999.9,-999.0,78,-99.99,,,-99.99,,2018-05-27 10:35:00,
2018-05-27 06:06:00,66.0,60.0,29.59,SE,146,0.0,0.0,81,-99.99,,,-99.99,,2018-05-27 11:06:00,
2018-05-27 06:36:00,66.0,60.0,29.59,South,191,0.0,0.0,82,-99.99,,,-99.99,,2018-05-27 11:36:00,
2018-05-27 07:06:00,66.0,61.0,29.59,SW,217,0.0,0.0,83,-99.99,,,-99.99,,2018-05-27 12:06:00,
2018-05-27 07:36:00,66.0,61.0,29.60,SW,225,0.0,0.0,83,-99.99,,,-99.99,,2018-05-27 12:36:00,
2018-05-27 08:06:00,67.0,62.0,29.60,South,181,0.0,0.0,84,-99.99,,,-99.99,,2018-05-27 13:06:00,
2018-05-27 08:36:00,67.0,62.0,29.60,SSE,157,0.0,0.0,84,-99.99,,,-99.99,,2018-05-27 13:36:00,
2018-05-27 09:06:00,68.0,63.0,29.60,South,184,0.0,0.0,84,-99.99,,,-99.99,,2018-05-27 14:06:00,
2018-05-27 09:36:00,69.0,63.0,29.61,SSW,193,0.0,0.0,82,-99.99,,,-99.99,,2018-05-27 14:36:00,
2018-05-27 10:06:00,70.0,64.0,29.61,SSE,158,0.0,0.0,82,-99.99,,,-99.99,,2018-05-27 15:06:00,
2018-05-27 10:36:00,75.0,66.0,29.61,SW,234,0.0,0.0,74,-99.99,,,-99.99,,2018-05-27 15:36:00,
2018-05-27 11:06:00,78.0,66.0,29.59,WSW,238,0.0,0.0,67,-99.99,,,-99.99,,2018-05-27 16:06:00,
2018-05-27 11:36:00,79.0,67.0,29.59,SSW,204,0.0,-999.0,66,-99.99,,,-99.99,,2018-05-27 16:36:00,
2018-05-27 12:06:00,79.0,65.0,29.58,SSW,203,0.0,0.0,62,-99.99,,,-99.99,,2018-05-27 17:06:00,
2018-05-27 12:36:00,82.0,67.0,29.57,SSW,194,0.0,0.0,61,-99.99,,,-99.99,,2018-05-27 17:36:00,
2018-05-27 13:06:00,84.0,66.0,29.57,SSE,155,0.0,0.0,54,-99.99,,,-99.99,,2018-05-27 18:06:00,
2018-05-27 13:36:00,86.0,65.0,29.55,SE,136,0.0,0.0,50,-99.99,,,-99.99,,2018-05-27 18:36:00,
2018-05-27 14:06:00,86.0,65.0,29.55,SSE,152,0.0,0.0,50,-99.99,,,-99.99,,2018-05-27 19:06:00,
2018-05-27 14:36:00,88.0,65.0,29.54,ESE,111,0.0,0.0,47,-99.99,,,-99.99,,2018-05-27 19:36:00,
2018-05-27 15:05:00,88.0,65.0,29.53,SE,133,0.0,0.0,46,-99.99,,,-99.99,,2018-05-27 20:05:00,
2018-05-27 15:36:00,89.0,63.0,29.53,South,190,0.0,0.0,42,-99.99,,,-99.99,,2018-05-27 20:36:00,
2018-05-27 16:06:00,89.0,63.0,29.52,SE,133,0.0,0.0,42,-99.99,,,-99.99,,2018-05-27 21:06:00,
2018-05-27 16:35:00,90.0,62.0,29.51,SE,132,0.0,0.0,40,-99.99,,,-99.99,,2018-05-27 21:35:00,
2018-05-27 17:06:00,93.0,60.0,29.49,ESE,118,0.0,0.0,33,-99.99,,,-99.99,,2018-05-27 22:06:00,
2018-05-27 17:36:00,90.0,59.0,29.47,ESE,110,0.0,0.0,35,-99.99,,,-99.99,,2018-05-27 22:36:00,
2018-05-27 18:06:00,88.0,59.0,29.47,SE,135,0.0,0.0,38,-99.99,,,-99.99,,2018-05-27 23:06:00,
2018-05-27 18:36:00,88.0,61.0,29.46,ESE,110,0.0,0.0,41,-99.99,,,-99.99,,2018-05-27 23:36:00,
2018-05-27 19:06:00,79.0,53.0,29.49,South,185,0.0,0.0,40,-99.99,,,-99.99,,2018-05-28 00:06:00,
2018-05-27 19:35:00,81.0,48.0,29.49,SE,137,0.0,0.0,32,-99.99,,,-99.99,,2018-05-28 00:35:00,
2018-05-27 20:06:00,81.0,47.0,29.49,NE,44,0.0,0.0,31,-99.99,,,-99.99,,2018-05-28 01:06:00,
2018-05-27 20:36:00,78.0,52.0,29.49,SE,140,0.0,0.0,40,-99.99,,,-99.99,,2018-05-28 01:36:00,
2018-05-27 21:06:00,77.0,60.0,29.52,SSE,150,0.0,0.0,55,-99.99,,,-99.99,,2018-05-28 02:06:00,
2018-05-27 22:07:00,78.0,63.0,29.54,ENE,66,0.0,0.0,61,-99.99,,,-99.99,,2018-05-28 03:07:00,